Temperature
23 23 22 22 21 21 20 20 20 19 19 19 19 18 18 18 18 18 17 17 17 17 17 17 17 17 17 17 17 17 17 17 17 17 17 17 17 17 17 17 17 17 17
23 23 22 22 21 21 21 20 20 20 19 19 19 18 18 18 18 18 18 17 17 18 18 18 17 17 17 17 17 17 17 17 17 17 17 17 17 17 17 17 17 17 17
23 23 22 22 21 21 21 21 20 20 19 19 19 18 18 18 18 18 18 18 18 18 18 18 18 18 17 17 17 17 17 17 17 17 17 17 17 17 17 17 17 17 17
23 23 22 22 22 21 21 21 20 20 20 19 19 19 19 18 18 18 18 18 18 18 18 18 17 17 17 17 17 17 17 17 17 17 17 17 17 17 16 17 17 17 16
23 23 23 23 22 22 21 21 21 20 20 19 19 19 19 18 18 18 18 18 18 18 18 17 17 17 17 17 17 17 17 17 17 17 17 17 17 17 17 16 16 16 16
24 23 23 23 22 22 22 21 21 20 20 20 19 19 19 19 18 18 18 18 18 18 17 17 17 17 17 17 17 17 17 17 17 17 17 17 17 17 17 16 16 16 16
24 23 23 23 22 22 22 21 21 21 20 20 20 19 19 19 18 18 18 18 18 17 17 17 17 17 17 17 17 17 17 17 17 17 17 17 17 17 17 16 16 16 15
24 23 23 23 23 23 22 22 21 21 21 20 20 20 19 19 19 18 18 18 17 17 17 17 17 17 17 17 17 17 17 17 17 17 17 17 17 16 16 16 16 15 15
24 24 24 23 23 23 23 22 22 21 21 20 20 20 19 19 19 18 18 18 17 17 17 17 17 17 17 17 17 17 16 16 16 16 16 16 16 16 16 16 16 16 15
24 24 24 24 23 23 23 22 22 22 21 21 20 20 20 19 19 18 18 18 17 17 17 17 17 17 17 17 17 16 16 16 16 16 16 16 16 16 16 16 16 15 15
24 24 24 24 23 23 23 22 22 22 21 21 20 20 19 19 19 18 18 18 17 17 17 17 17 17 17 17 17 16 16 16 16 16 16 16 16 16 16 15 15 15 15
25 25 24 24 23 23 23 22 22 22 21 21 20 20 19 19 19 19 18 18 17 17 17 17 17 16 16 16 16 16 16 16 16 16 16 15 15 15 15 15 15 15 15
25 24 24 24 23 23 23 22 22 22 21 21 20 20 19 19 19 18 18 18 17 17 17 17 16 16 16 16 16 16 16 16 15 15 15 15 15 15 15 15 14 14 14
24 24 24 23 23 23 23 22 22 22 21 21 20 20 19 19 18 18 18 17 17 17 17 16 16 16 16 16 16 16 15 15 15 15 15 14 14 14 14 14 14 14 14
24 24 24 23 23 23 23 22 22 22 21 21 20 20 19 19 18 18 18 17 17 17 16 16 16 16 16 15 15 15 15 15 15 14 14 14 14 14 14 14 14 13 13
23 23 23 23 23 23 22 22 22 21 21 20 20 19 19 19 18 18 17 17 17 16 16 16 16 16 15 15 15 15 15 14 14 14 14 14 14 13 13 13 13 13 13
23 23 23 23 23 23 22 22 22 21 21 20 20 19 19 18 18 18 17 17 17 16 16 16 15 15 15 15 15 14 14 14 14 14 14 13 13 13 13 12 12 12 12
24 23 23 23 23 23 22 22 21 21 20 20 19 19 18 18 18 18 17 17 16 16 16 15 15 15 15 14 14 14 14 14 13 13 13 13 13 12 12 12 12 12 11
24 24 24 23 23 22 22 21 21 20 20 19 19 18 18 18 18 17 17 17 16 16 15 15 15 15 14 14 14 14 14 13 13 13 12 12 12 12 12 12 12 11 11
24 23 23 22 22 22 21 21 20 20 19 19 18 18 18 17 17 17 16 16 16 15 15 15 14 14 14 14 13 13 13 13 13 12 12 12 12 11 11 11 11 11 11
23 23 22 22 21 21 20 20 20 19 19 19 18 18 17 17 16 16 16 15 15 15 14 14 14 14 13 13 13 13 12 12 12 12 12 11 11 11 11 11 11 10 10
22 22 21 21 20 20 20 19 19 19 18 18 18 17 17 16 16 16 15 15 14 14 14 14 13 13 13 13 12 12 12 12 12 12 11 11 11 11 10 10 10 10 10
21 21 20 20 19 19 19 19 18 18 18 17 17 17 16 16 15 15 15 14 14 14 13 13 13 13 13 12 12 12 11 11 11 11 11 11 10 10 10 10 10 10 10
20 20 20 19 19 18 18 18 18 18 17 17 17 16 16 15 15 15 14 14 14 13 13 13 13 13 12 12 12 11 11 11 11 11 10 10 10 10 10 10 10 10 9
19 19 19 19 18 18 18 17 17 17 17 17 16 16 15 15 14 14 14 14 14 14 13 13 13 13 12 12 12 11 11 11 11 10 10 10 10 10 10 10 10 9 9
19 19 19 19 18 18 17 17 17 17 17 16 16 15 15 14 14 14 14 13 13 13 13 13 12 12 12 12 11 11 11 11 10 10 10 10 10 10 10 10 9 9 9
Wind_Speed
8 9 9 10 9 7 7 6 5 4 4 3 2 2 1 1 1 2 3 4 4 3 3 1 1 1 1 2 2 1 1 1 1 2 1 2 1 1 2 2 3 5 8
8 9 9 9 9 8 7 6 6 5 4 3 3 2 2 1 1 1 2 3 4 3 3 2 2 2 1 1 1 2 1 1 1 2 1 1 3 2 1 1 2 3 4
12 11 10 9 8 8 8 7 6 5 5 4 2 2 2 1 1 0 1 2 3 3 2 2 2 2 2 2 2 3 3 2 2 2 3 2 3 1 2 1 1 1 1
10 10 10 10 10 8 7 6 6 5 5 4 4 4 3 2 2 1 1 1 2 2 3 2 2 2 2 2 3 2 2 3 2 1 2 3 4 3 1 2 1 1 1
12 11 11 11 10 9 8 7 6 5 5 4 4 4 3 2 1 1 1 0 1 1 2 1 2 2 2 2 2 1 2 2 3 2 1 1 1 2 3 1 1 1 0
12 11 10 9 9 8 7 7 7 5 5 5 5 5 4 3 2 1 1 0 1 1 1 0 0 1 1 2 2 2 2 2 2 2 2 2 2 3 3 3 2 1 1
11 11 11 11 10 10 9 8 8 6 5 5 5 4 4 4 3 2 1 1 0 1 1 0 0 0 1 1 0 1 1 1 2 2 2 2 2 3 3 3 2 1 1
11 12 13 12 12 12 11 9 9 7 6 6 5 4 4 3 2 2 2 1 1 1 0 1 1 1 1 1 1 0 0 0 1 1 1 1 1 2 3 3 3 1 0
12 12 12 12 12 12 11 11 10 8 7 6 5 4 4 3 3 2 2 1 0 1 1 2 2 2 2 3 2 2 1 1 1 1 1 0 1 0 1 3 4 4 2
11 11 11 12 11 11 10 10 10 9 8 7 6 5 4 4 3 3 2 2 1 1 2 2 3 3 3 3 3 3 2 3 2 1 2 2 1 1 0 1 2 2 3
12 11 11 11 10 10 10 10 9 8 7 7 6 5 4 4 3 3 2 2 2 2 3 3 3 3 3 3 3 3 3 3 3 3 3 2 2 1 1 1 1 2 3
10 10 10 9 10 10 9 9 9 9 8 7 6 5 4 4 4 3 3 3 3 3 3 3 4 4 3 3 3 3 3 3 3 3 3 3 2 3 2 2 2 2 2
9 9 9 9 9 9 9 8 8 8 7 7 6 6 5 4 4 3 3 3 3 4 4 4 4 3 3 3 2 3 3 3 3 3 3 3 3 3 3 3 3 2 3
10 10 9 8 9 9 9 8 8 8 8 7 7 6 5 5 5 4 4 4 4 4 4 4 3 3 3 3 3 3 4 4 4 4 4 4 4 3 3 3 3 4 4
11 10 10 9 8 8 8 7 7 7 8 8 7 6 5 5 5 4 4 4 4 4 4 4 4 3 3 3 4 4 4 5 5 5 5 5 7 6 4 4 3 4 4
11 10 10 10 9 9 8 8 7 7 8 8 7 6 6 6 5 5 5 5 4 4 5 5 5 4 4 5 6 5 4 4 5 4 4 5 7 8 8 7 7 6 5
11 11 10 10 9 9 8 8 7 7 8 8 7 7 7 6 5 6 5 5 4 5 5 5 5 5 4 6 7 7 5 5 4 4 3 4 4 5 5 7 8 7 6
12 12 11 10 8 8 8 8 7 7 8 7 7 7 7 6 6 6 5 5 4 5 5 5 5 5 5 6 7 7 6 5 4 4 4 4 4 4 5 5 5 5 4
11 11 10 9 9 9 9 9 8 7 7 7 6 6 7 7 6 6 5 4 5 5 4 4 5 5 4 5 7 7 5 5 4 4 5 5 4 5 7 6 5 5 4
8 9 9 9 9 9 9 10 8 7 7 6 6 6 6 6 6 6 5 4 5 5 5 5 4 4 3 5 6 7 4 4 4 3 4 5 5 5 6 5 4 4 2
9 9 10 9 9 10 10 10 8 8 7 7 7 6 6 6 6 5 5 5 5 5 5 5 4 3 3 4 6 6 4 4 3 2 1 1 3 4 4 4 3 2 2
10 10 10 8 8 10 11 9 8 6 7 7 7 6 5 5 5 5 5 5 6 6 5 4 3 2 2 3 4 6 5 5 4 2 1 0 2 3 4 2 2 3 4
10 9 10 8 6 7 9 9 7 7 7 7 6 6 5 4 4 5 5 4 5 4 4 4 3 1 1 1 3 5 5 5 3 2 2 1 2 3 2 3 3 3 3
9 9 10 9 6 6 7 8 8 8 8 7 6 5 5 4 4 3 3 4 4 5 5 5 4 3 2 1 1 1 2 3 2 1 1 1 2 3 2 2 2 2 2
8 9 9 9 8 7 7 7 8 8 8 7 6 5 5 5 4 3 2 3 3 5 6 5 5 5 4 5 5 5 3 2 2 2 2 2 2 1 1 1 1 1 1
7 8 8 8 7 7 7 6 7 8 8 6 5 5 5 4 4 4 3 4 1 2 6 7 7 4 5 7 7 6 6 5 5 4 2 1 1 1 2 1 1 1 1
Wind_Direction
175 164 159 154 149 150 156 158 153 159 150 142 149 152 181 183 176 191 182 184 185 183 169 169 193 186 179 207 189 154 163 199 146 99 357 332 287 224 224 210 197 201 202
165 166 161 160 161 162 164 161 162 163 162 164 162 160 155 178 195 212 188 200 199 197 186 182 199 203 198 219 202 159 167 225 163 142 122 346 343 339 254 213 195 198 191
174 173 171 171 165 167 170 167 167 164 170 164 136 111 81 38 39 23 244 235 216 209 198 202 197 206 194 214 223 194 181 213 237 175 157 166 223 297 345 348 173 175 181
175 173 170 170 172 174 168 161 161 161 164 155 144 148 154 167 210 204 202 229 212 214 212 213 201 203 203 212 230 203 186 180 216 233 198 185 170 168 282 338 349 125 178
176 175 176 174 172 171 166 161 155 158 160 152 153 147 149 169 168 139 146 281 310 258 237 225 209 206 208 214 225 214 196 185 188 197 200 180 180 165 171 234 303 11 322
177 177 175 166 166 167 164 159 154 159 159 153 153 152 152 151 137 135 163 224 319 323 303 173 194 229 214 220 223 209 204 210 200 198 187 177 182 191 175 197 217 249 310
172 173 171 170 171 171 169 166 162 166 165 158 159 162 161 152 151 158 166 169 315 325 306 32 8 322 267 247 224 180 219 212 196 205 206 189 200 182 167 166 192 210 276
172 177 179 177 176 174 171 169 169 169 167 164 166 161 154 146 151 160 159 167 194 216 34 70 53 43 26 40 49 63 138 124 183 216 190 180 220 183 171 171 164 167 298
176 179 180 178 175 174 175 172 171 169 169 169 161 155 152 148 147 145 140 144 143 127 79 73 67 58 58 61 70 61 51 73 53 31 55 74 300 226 178 169 167 166 183
176 178 177 177 175 174 173 170 170 170 171 172 171 163 157 157 153 132 121 118 98 83 88 76 76 69 64 66 75 71 57 70 43 39 48 32 348 358 70 161 166 161 169
177 176 177 175 168 165 166 169 171 168 169 169 165 157 159 159 148 137 132 127 111 103 97 99 96 83 72 76 84 80 76 70 39 24 36 15 13 30 25 65 100 122 137
171 168 165 160 162 166 167 171 172 172 174 168 160 158 156 149 142 139 137 129 116 106 112 106 96 90 81 77 89 87 75 72 53 30 33 13 30 40 35 63 82 100 121
156 150 151 156 163 167 167 167 167 168 165 158 152 152 152 146 144 143 138 121 111 107 106 107 102 96 86 82 82 97 87 78 67 53 49 28 47 46 46 65 78 86 96
155 152 155 161 163 164 165 163 166 163 155 147 148 152 156 154 150 142 130 117 112 110 111 111 111 105 92 84 83 89 85 77 68 61 59 57 65 66 66 76 79 94 96
160 161 161 159 155 152 157 157 155 155 150 143 143 148 149 145 137 131 122 115 112 111 108 103 89 86 90 87 92 94 93 83 72 58 54 64 73 74 79 94 102 106 108
165 166 161 158 157 155 156 155 154 152 145 144 147 144 138 134 129 124 120 115 106 98 97 96 91 82 82 85 93 99 91 85 80 71 59 66 64 67 69 81 92 109 123
168 166 165 165 164 159 157 155 154 146 141 145 147 147 143 138 138 133 121 117 114 104 98 97 96 89 79 87 93 97 100 95 91 84 76 76 67 68 70 69 66 68 89
169 171 169 169 164 152 141 136 136 136 138 141 145 146 144 143 140 131 130 128 122 118 114 108 106 98 81 84 92 100 95 92 84 81 87 86 66 69 86 81 65 53 49
169 171 170 161 150 144 139 132 129 131 132 137 141 145 145 146 144 144 145 139 129 123 119 123 116 104 84 87 97 101 97 91 76 72 77 88 81 73 89 89 78 55 31
153 156 150 141 142 144 138 132 135 137 140 140 137 136 137 144 148 149 143 133 130 129 123 111 112 112 104 98 104 109 109 103 90 68 62 75 86 80 89 100 99 85 42
132 132 132 137 142 142 139 138 143 152 149 137 131 129 132 137 140 139 139 134 130 125 120 115 109 111 113 111 114 120 118 128 122 109 78 38 77 84 88 102 119 144 142
121 123 124 126 133 138 139 142 149 148 134 131 129 127 132 138 135 131 136 135 139 135 133 124 109 91 101 114 126 128 128 134 131 144 168 191 85 79 76 81 89 101 103
123 122 122 121 126 137 141 143 148 137 132 130 129 128 126 121 128 139 149 147 150 152 154 152 152 147 91 96 118 132 135 134 132 163 173 143 87 64 53 47 77 97 104
127 124 121 122 126 134 136 143 146 142 139 140 136 133 133 127 122 129 145 157 168 170 169 171 175 171 159 155 130 125 121 117 99 86 63 68 62 53 31 29 56 80 130
133 133 137 139 146 143 140 145 146 143 140 143 145 144 145 146 134 119 121 160 184 188 178 184 180 173 184 212 191 166 167 173 169 122 72 57 52 43 29 16 10 33 73
140 139 140 143 146 146 149 151 152 150 149 149 154 157 156 151 145 137 99 46 97 164 173 175 172 185 189 181 176 171 169 166 149 122 115 157 186 187 191 196 241 263 230
Height
1551 1552 1553 1554 1555 1556 1556 1556 1556 1556 1557 1557 1558 1558 1558 1559 1559 1559 1560 1560 1560 1560 1561 1561 1561 1562 1562 1563 1563 1564 1564 1564 1564 1564 1564 1564 1565 1565 1565 1565 1566 1566 1567
1549 1551 1552 1553 1554 1555 1555 1556 1556 1556 1556 1556 1557 1557 1558 1558 1558 1558 1558 1559 1559 1559 1559 1559 1560 1560 1560 1561 1562 1562 1562 1562 1563 1563 1562 1562 1564 1563 1563 1564 1564 1564 1565
1547 1549 1551 1552 1554 1554 1555 1555 1555 1555 1555 1556 1556 1556 1556 1556 1557 1557 1557 1557 1558 1558 1558 1558 1558 1558 1559 1559 1559 1560 1560 1560 1561 1561 1561 1561 1560 1561 1561 1561 1562 1562 1563
1545 1547 1549 1551 1552 1553 1554 1554 1555 1555 1555 1555 1555 1555 1555 1555 1556 1556 1556 1556 1557 1557 1557 1556 1556 1556 1557 1557 1557 1558 1558 1558 1558 1558 1559 1560 1559 1560 1560 1560 1560 1561 1560
1543 1545 1547 1549 1551 1553 1553 1554 1554 1554 1554 1555 1555 1555 1555 1555 1555 1555 1556 1556 1556 1556 1555 1555 1555 1555 1555 1555 1555 1555 1556 1556 1556 1556 1556 1557 1557 1557 1558 1558 1559 1559 1559
1541 1544 1547 1549 1550 1552 1553 1553 1553 1554 1554 1554 1554 1554 1554 1555 1555 1555 1555 1555 1554 1554 1554 1553 1553 1553 1553 1553 1553 1553 1553 1554 1554 1554 1554 1554 1555 1555 1555 1556 1556 1556 1557
1540 1542 1545 1547 1549 1550 1551 1552 1553 1553 1553 1553 1554 1554 1554 1554 1554 1554 1554 1554 1553 1553 1552 1552 1552 1552 1551 1552 1551 1551 1551 1551 1551 1552 1552 1552 1553 1553 1553 1553 1553 1554 1555
1537 1540 1543 1545 1547 1549 1550 1551 1551 1552 1552 1553 1553 1553 1554 1554 1554 1553 1553 1553 1552 1552 1552 1551 1551 1550 1550 1550 1550 1549 1549 1549 1550 1550 1550 1550 1550 1551 1551 1551 1551 1551 1552
1536 1538 1541 1543 1545 1547 1548 1549 1550 1551 1552 1552 1553 1553 1553 1553 1553 1553 1552 1552 1552 1552 1551 1550 1550 1549 1549 1548 1548 1547 1548 1548 1548 1548 1548 1548 1548 1548 1548 1548 1549 1549 1549
1534 1537 1539 1542 1544 1546 1548 1549 1550 1551 1551 1552 1552 1552 1552 1552 1552 1552 1552 1551 1551 1551 1550 1549 1549 1549 1548 1548 1547 1547 1547 1547 1547 1547 1546 1546 1546 1546 1546 1546 1546 1547 1547
1532 1534 1537 1540 1543 1545 1546 1548 1549 1550 1551 1551 1552 1552 1552 1552 1552 1552 1551 1551 1550 1550 1549 1549 1549 1548 1548 1547 1546 1546 1546 1545 1545 1545 1545 1545 1544 1544 1544 1544 1544 1544 1545
1530 1533 1536 1539 1541 1543 1545 1546 1548 1549 1549 1550 1551 1551 1552 1552 1551 1551 1550 1550 1549 1549 1549 1548 1548 1547 1547 1547 1546 1545 1545 1545 1544 1544 1544 1544 1544 1543 1543 1543 1543 1543 1543
1529 1532 1534 1537 1540 1542 1543 1545 1546 1547 1548 1549 1550 1550 1551 1551 1551 1550 1550 1549 1549 1548 1548 1548 1547 1547 1546 1546 1546 1545 1545 1544 1544 1544 1543 1543 1543 1543 1542 1542 1542 1542 1542
1527 1530 1533 1535 1538 1540 1542 1543 1545 1546 1547 1548 1548 1549 1549 1550 1550 1550 1549 1549 1548 1548 1548 1547 1547 1547 1546 1546 1545 1545 1545 1544 1544 1544 1543 1543 1543 1542 1542 1542 1541 1541 1541
1525 1528 1531 1533 1536 1538 1540 1542 1544 1545 1546 1546 1547 1547 1548 1549 1549 1549 1548 1548 1548 1548 1548 1547 1547 1547 1546 1546 1546 1545 1545 1545 1544 1544 1543 1543 1543 1542 1542 1541 1541 1541 1541
1523 1526 1528 1530 1533 1536 1539 1541 1542 1543 1544 1545 1546 1547 1547 1547 1548 1548 1548 1548 1548 1547 1547 1547 1547 1547 1546 1546 1546 1545 1545 1545 1544 1544 1543 1543 1543 1542 1542 1541 1541 1541 1541
1520 1524 1526 1528 1530 1534 1536 1538 1540 1541 1543 1544 1545 1545 1546 1547 1547 1547 1548 1547 1547 1547 1547 1547 1547 1546 1546 1546 1546 1545 1545 1545 1545 1544 1543 1543 1542 1542 1542 1541 1541 1541 1541
1517 1521 1523 1526 1529 1532 1534 1537 1539 1540 1541 1542 1543 1544 1545 1545 1546 1547 1547 1547 1547 1547 1547 1547 1546 1546 1546 1545 1545 1545 1545 1545 1544 1544 1544 1543 1543 1542 1542 1542 1541 1541 1541
1514 1518 1521 1524 1527 1530 1532 1534 1536 1538 1539 1540 1541 1542 1543 1544 1545 1546 1546 1546 1546 1546 1546 1546 1546 1546 1546 1545 1545 1545 1545 1545 1544 1544 1544 1544 1543 1543 1543 1542 1542 1541 1542
1513 1516 1520 1523 1525 1528 1530 1532 1534 1535 1536 1538 1540 1541 1542 1543 1544 1544 1545 1545 1545 1545 1545 1545 1546 1546 1545 1545 1545 1545 1545 1545 1544 1544 1544 1544 1544 1543 1543 1543 1542 1542 1542
1512 1515 1518 1520 1523 1526 1528 1530 1531 1532 1534 1536 1537 1539 1541 1542 1543 1543 1543 1544 1544 1544 1544 1544 1545 1545 1545 1545 1545 1545 1545 1545 1545 1544 1544 1544 1544 1544 1544 1544 1543 1543 1543
1511 1514 1517 1520 1522 1524 1526 1527 1529 1531 1533 1535 1536 1538 1539 1540 1541 1541 1542 1542 1542 1542 1543 1543 1544 1544 1544 1544 1544 1545 1545 1545 1545 1544 1545 1545 1545 1544 1544 1544 1544 1544 1544
1511 1513 1516 1519 1521 1523 1525 1526 1528 1530 1532 1534 1535 1536 1537 1538 1539 1540 1540 1540 1541 1541 1541 1542 1542 1543 1543 1543 1543 1544 1544 1544 1544 1544 1545 1545 1545 1545 1545 1545 1544 1544 1544
1510 1513 1515 1517 1520 1522 1524 1525 1527 1529 1530 1532 1532 1534 1535 1536 1537 1538 1538 1539 1539 1539 1540 1540 1540 1541 1541 1542 1542 1543 1543 1544 1544 1544 1544 1545 1545 1545 1545 1545 1545 1544 1544
1510 1512 1514 1516 1518 1520 1522 1524 1526 1527 1528 1529 1530 1531 1533 1534 1535 1536 1536 1537 1538 1538 1539 1539 1539 1539 1540 1541 1542 1542 1542 1543 1544 1544 1544 1544 1545 1545 1544 1545 1544 1544 1544
1510 1512 1513 1515 1517 1519 1520 1522 1524 1525 1526 1527 1528 1529 1530 1532 1533 1534 1534 1535 1536 1536 1537 1538 1538 1538 1539 1539 1540 1541 1542 1542 1543 1543 1543 1544 1544 1544 1543 1543 1543 1543 1543